VK3TI-1 Weather Reports


time (UTC)temp
C
wind
direction
speed
KPH
gust
KPH
rain 1hr
cm
rain 24hr
cm
rain mn
cm
humidity
%
barometer
mb
20260505121552 13 360 0.0 0.0 0.00 0.00 0.00 73 1023.1
20260505120150 13 360 0.0 0.0 0.00 0.00 0.00 72 1023.1
20260505114650 13 360 0.0 0.0 0.00 0.00 0.00 72 1023.2
20260505113053 13 355 0.0 0.0 0.00 0.00 0.00 71 1023.2
20260505111549 13 355 0.0 0.0 0.00 0.00 0.00 71 1023.2
20260505101550 13 10 0.0 0.0 0.00 0.00 0.00 72 1023.0
20260505100045 13 335 0.0 0.0 0.00 0.00 0.00 73 1023.1
20260505094544 13 325 0.0 0.0 0.00 0.00 0.00 73 1023.0
20260505093044 13 301 0.0 0.0 0.00 0.00 0.00 72 1023.0
20260505091543 13 301 0.0 0.0 0.00 0.00 0.00 72 1023.0
20260505090045 13 301 0.0 0.0 0.00 0.00 0.00 72 1022.9
20260505084551 13 301 0.0 0.0 0.00 0.00 0.00 71 1022.9
20260505083051 14 301 0.0 0.0 0.00 0.00 0.00 71 1022.7
20260505081538 14 301 0.0 0.0 0.00 0.00 0.00 71 1022.5
20260505080043 14 293 0.0 1.6 0.00 0.00 0.00 71 1022.3
20260505074533 14 309 0.0 0.0 0.00 0.00 0.00 70 1022.2
20260505073035 14 317 0.0 0.0 0.00 0.00 0.00 69 1022.1
20260505071537 14 284 0.0 11.3 0.00 0.00 0.00 69 1022.0
20260505070025 14 270 0.0 4.8 0.00 0.00 0.00 68 1021.9
20260505064522 14 244 0.0 6.4 0.00 0.00 0.00 67 1021.9
20260505063018 15 286 0.0 9.7 0.00 0.00 0.00 65 1021.7
20260505061517 15 286 1.6 8.0 0.00 0.00 0.00 63 1021.7
20260505060015 15 329 1.6 8.0 0.00 0.00 0.00 63 1021.6
20260505054514 15 280 3.2 11.3 0.00 0.00 0.00 62 1021.4
20260505053011 15 263 1.6 9.7 0.00 0.00 0.00 64 1021.3
20260505051511 15 278 1.6 11.3 0.00 0.00 0.00 64 1021.1
20260505041503 14 253 4.8 14.5 0.00 0.00 0.00 67 1020.8
20260505040001 15 294 1.6 11.3 0.00 0.00 0.00 65 1020.7
20260505034502 14 300 0.0 12.9 0.00 0.00 0.00 65 1020.7
20260505033002 14 285 0.0 19.3 0.00 0.00 0.00 65 1020.7
20260505031604 14 274 1.6 14.5 0.00 0.00 0.00 65 1020.7
20260505024559 13 251 1.6 16.1 0.00 0.00 0.00 68 1020.8
20260505023058 14 256 6.4 14.5 0.00 0.00 0.00 66 1020.8
20260505021558 15 259 3.2 17.7 0.00 0.00 0.00 65 1020.9
20260505020055 14 296 4.8 19.3 0.00 0.00 0.00 66 1020.9
20260505014603 13 252 4.8 20.9 0.00 0.00 0.00 67 1021.1
20260505013049 13 276 4.8 24.1 0.00 0.00 0.00 68 1021.1
20260505011551 13 245 6.4 19.3 0.00 0.00 0.00 70 1021.2
20260505010046 13 292 9.7 27.4 0.00 0.00 0.00 71 1021.1
20260505004544 13 285 1.6 22.5 0.00 0.00 0.00 72 1021.1
20260505003042 13 257 4.8 27.4 0.00 0.00 0.00 73 1020.9
20260505001546 13 304 8.0 25.7 0.00 0.00 0.00 73 1020.6
20260505000047 13 263 4.8 22.5 0.00 0.00 0.00 74 1020.5
20260504234541 13 294 8.0 22.5 0.00 0.00 0.00 75 1020.4
20260504233040 13 214 8.0 17.7 0.00 0.00 0.00 77 1020.4
20260504231535 13 261 4.8 16.1 0.00 0.00 0.00 78 1020.3
20260504230033 12 269 3.2 19.3 0.00 0.00 0.00 79 1020.1
20260504224537 12 267 4.8 27.4 0.00 0.00 0.00 79 1020.0
20260504223030 12 257 1.6 16.1 0.00 0.00 0.00 81 1019.7
20260504221526 12 332 0.0 12.9 0.00 0.00 0.00 82 1019.4
20260504220024 12 290 4.8 14.5 0.00 0.00 0.00 83 1019.2
20260504214526 12 300 1.6 12.9 0.00 0.00 0.00 83 1018.9
20260504213021 12 284 0.0 16.1 0.00 0.00 0.00 83 1018.6
20260504211517 12 328 3.2 17.7 0.00 0.00 0.00 83 1018.3
20260504210016 12 300 0.0 14.5 0.00 0.00 0.00 83 1018.1
20260504204519 12 275 4.8 17.7 0.00 0.00 0.00 83 1018.0
20260504203007 12 287 3.2 16.1 0.00 0.00 0.00 84 1017.7
20260504201504 12 300 4.8 16.1 0.00 0.00 0.00 83 1017.4
20260504200101 12 294 1.6 12.9 0.00 0.00 0.00 82 1017.2
20260504200002 12 288 1.6 12.9 0.00 0.00 0.00 82 1017.1
20260504194559 12 292 4.8 17.7 0.00 0.00 0.00 81 1017.0
20260504193057 12 275 4.8 17.7 0.00 0.00 0.00 81 1016.9
20260504191600 12 306 6.4 19.3 0.00 0.00 0.00 80 1016.9
20260504190054 12 297 1.6 17.7 0.00 0.00 0.00 80 1016.6
20260504184550 12 318 3.2 17.7 0.00 0.00 0.00 79 1016.5
20260504183046 12 307 0.0 12.9 0.00 0.00 0.00 79 1016.2
20260504181545 12 313 0.0 14.5 0.00 0.00 0.00 79 1016.1
20260504180043 13 295 6.4 16.1 0.00 0.00 0.00 79 1015.9
20260504174541 13 231 0.0 16.1 0.00 0.00 0.00 78 1015.8
20260504173041 13 315 1.6 14.5 0.00 0.00 0.00 77 1015.8
20260504171538 13 293 0.0 16.1 0.00 0.00 0.00 77 1015.6